Location: Newark
(22.3060°N, 114.2134°E)
Time: 04:17:19
(UTC+00:00)

Tiros 1 despin weight - Pass Details

Date: 04 August 2021
Orbit: 593 x 641 km, 48.2° (Epoch: 26 September)

Event Time Altitude Azimuth Distance (km) Brightness Sun altitude
Rises 12:04:29 0° 312° (NW) 2,924 ? -14.2°
Reaches altitude 10° 12:06:50 10° 309° (NW) 2,009 ? -14.7°
Maximum altitude 12:11:25 63° 228° (SW) 697 ? -15.6°
Enters shadow 12:14:11 23° 153° (SSE) 1,337 ? -16.2°
